Location: Gimbsheim
(49.7807°N, 8.3759°E)
Time: 07:04:56
(UTC+00:00)

Daily predictions for brighter satellites

Satellite Brightness Start Highest point End
(mag) Time Altitude Azimuth Time Altitude Azimuth Time Altitude Azimuth
Okean 2 Rocket 4.4 19:35:29 10° SSW 19:39:48 47° WNW 19:44:10 10° N
MetOp-B 4.2 19:34:32 10° SSE 19:39:54 86° ENE 19:45:17 10° NNW
Cosmos 1459 Rocket 4.3 19:35:40 10° SSW 19:41:50 73° W 19:47:59 10° N
Cosmos 1980 Rocket 3.2 19:37:19 10° NW 19:42:42 44° WSW 19:48:03 10° S
Cosmos 2061 Rocket 4.3 19:37:22 10° SSE 19:43:21 52° E 19:49:26 10° NNE
CZ-4 R/B 2.2 19:41:17 10° S 19:44:45 44° W 19:48:16 10° NNW
USA 186 2.5 19:43:15 10° SE 19:45:40 29° ENE 19:48:07 10° N
Cosmos 2228 2.9 19:41:51 10° S 19:45:54 64° E 19:49:58 10° NNE
COSMOS 2406 3.7 19:41:08 10° S 19:46:28 41° ESE 19:51:49 10° NE
Cosmos 2084 Rocket 4.4 19:43:40 10° NW 19:47:38 41° SW 19:51:38 10° SSE
SL-08 R/B 3.5 19:43:10 10° NNE 19:47:53 51° E 19:52:27 10° S
Cosmos 1743 3.2 19:46:17 10° NNW 19:49:12 44° W 19:52:05 10° S
ISS -3.4 19:46:11 10° W 19:49:31 67° N 19:52:51 10° ENE
Cosmos 1461 3.3 19:47:04 10° S 19:50:21 31° ESE 19:53:38 10° ENE
Cosmos 1455 Rocket 3.3 19:46:17 10° SSW 19:50:41 75° W 19:55:04 10° N
Cosmos 1992 Rocket 4.1 19:45:42 10° S 19:50:45 55° ESE 19:55:51 10° NNE
Cosmos 1892 Rocket 4.1 19:47:09 10° NNW 19:51:24 59° W 19:55:36 10° S
Cosmos 1802 Rocket 4.2 19:45:29 10° SSW 19:51:39 81° W 19:57:50 10° N
SKYMED 3 4.3 19:47:49 10° NNE 19:51:46 65° ESE 19:55:42 10° S
Terra 2.1 19:48:08 10° S 19:52:49 72° WSW 19:57:32 10° NNW
Okean O Rocket 1.7 19:53:10 10° SSE 19:57:24 63° ENE 20:01:41 10° N
Cosmos 2333 Rocket 2.5 19:53:15 10° NNW 19:58:54 60° NE 20:04:29 10° SE
NOSS 3-3 (A) 3.7 19:59:06 10° SW 20:04:17 82° SE 20:10:34 10° NE
Cosmos 1544 Rocket 3.9 20:00:22 10° SSE 20:04:29 44° E 20:08:35 10° NNE
Cosmos 1437 Rocket 3.2 20:03:41 10° SSE 20:06:56 34° E 20:10:14 10° NNE
Cosmos 2360 Rocket 2.9 20:03:26 10° NNW 20:08:53 44° NE 20:13:59 11° ESE
Helios 1A Rocket 3.1 20:06:09 10° N 20:09:14 51° WNW 20:12:17 10° SSW
CZ-4B R/B 3.9 20:07:39 10° S 20:13:12 57° WSW 20:18:43 10° NNW
Cosmos 2233 Rocket 4.1 20:09:02 10° S 20:15:14 83° W 20:21:26 10° N
Cosmos 1486 Rocket 4.4 20:14:20 10° NNW 20:19:30 54° ENE 20:23:55 14° SE
Okean-O 2.7 20:15:13 10° SSE 20:19:35 81° WSW 20:23:59 10° NNW
Cosmos 1758 Rocket 3.6 20:17:04 10° N 20:21:29 87° ENE 20:25:51 10° S
Cosmos 909 Rocket 4.1 20:15:14 10° SW 20:21:32 90° E 20:28:08 10° NE
Cosmos 2219 Rocket 3.2 20:16:17 10° NNW 20:21:32 37° NE 20:26:24 12° ESE
CZ-2C R/B 3.6 20:21:09 14° ESE 20:22:37 20° ENE 20:24:46 10° NNE
DNEPR-1 R/B 4.4 20:23:58 10° NW 20:29:25 85° NE 20:34:57 15° SE
Nadezhda 4 Rocket 4.4 20:24:48 10° N 20:30:41 47° ENE 20:35:26 16° SE
Meteor 1-25 Rocket 4.3 20:25:15 10° N 20:30:55 70° ENE 20:35:41 14° SSE
USA 245 4.3 20:25:40 12° SSE 20:31:08 76° ENE 20:36:36 10° N
IRS-1C Rocket 4.3 20:27:08 14° SE 20:31:30 58° ENE 20:36:41 10° N
Cosmos 1825 Rocket 4.4 20:30:02 10° N 20:34:05 36° ENE 20:36:52 18° SE
Cosmos 1805 3.2 20:31:34 10° N 20:34:43 45° ENE 20:36:34 21° SE
Cosmos 220 Rocket 3.9 20:32:51 10° S 20:36:49 57° ESE 20:40:51 10° NNE
NOSS 3-3 (C) 4.0 20:31:34 10° SW 20:36:52 78° NW 20:43:20 10° NE
Cosmos 2322 Rocket 2.3 20:35:50 10° NNW 20:41:31 76° ENE 20:45:49 18° SE
Cosmos 1602 Rocket 3.5 20:41:07 10° N 20:45:27 88° E 20:48:44 17° S
USA 306 3.6 20:43:18 10° WNW 20:45:46 25° N 20:47:27 10° NE
Cosmos 2082 Rocket 3.5 20:41:10 10° WSW 20:46:36 43° NW 20:52:04 10° NNE
NOSS 3-4 (A) 3.8 20:42:21 10° NW 20:49:02 85° SW 20:55:06 18° SE
NOSS 3-4 (C) 3.8 20:42:59 10° NW 20:49:41 86° SW 20:55:45 18° SE
Cosmos 1707 4.3 20:52:04 12° E 20:52:04 12° E 20:53:03 10° ENE
CZ-4B R/B 2.5 20:49:58 20° S 20:52:10 76° WSW 20:55:40 10° NNW
Cosmos 2151 3.6 20:51:40 10° NNW 20:55:40 50° W 20:59:05 13° SSW
Cosmos 2098 Rocket 3.0 20:53:24 15° S 20:57:12 70° E 21:01:17 10° NNE
Cosmos 1076 Rocket 4.0 20:54:03 10° N 20:58:09 45° ENE 21:00:20 24° SE
Cosmos 44 4.2 20:53:32 10° NNW 20:58:49 49° NE 21:02:45 17° ESE
Cosmos 2237 Rocket 4.4 20:55:27 10° N 20:59:07 17° NNE 21:02:45 10° ENE
CZ-4C R/B 4.3 20:56:19 10° WNW 21:00:28 27° NNW 21:05:39 10° NE
Ariane Rocket 3.0 20:59:02 19° SSE 21:02:43 82° WSW 21:07:49 10° NNW
Cosmos 2278 4.2 21:03:04 10° NW 21:08:37 54° WSW 21:12:37 19° S
SL-16 R/B 3.2 21:07:17 10° NW 21:12:33 40° WSW 21:16:43 15° S
COSMOS 2428 3.9 21:08:15 10° NNW 21:13:24 33° NE 21:17:37 14° ESE
Meteor 1-5 Rocket 4.4 21:07:39 10° NNW 21:13:25 79° W 21:17:38 20° S
SPOT 3 Rocket 4.1 21:09:24 16° S 21:13:26 54° W 21:18:28 10° NNW
Cosmos 1763 Rocket 3.6 21:10:53 19° S 21:14:34 56° ESE 21:19:43 10° NNE
USA 186 4.2 21:13:40 10° SW 21:15:07 13° W 21:16:35 10° WNW
USA 290 2.0 21:18:07 28° SSW 21:19:37 88° SE 21:22:46 10° NNE
Cosmos 1606 Rocket 3.4 21:17:15 21° S 21:20:06 89° ENE 21:24:26 10° N
Cosmos 990 Rocket 3.9 21:18:04 10° NNW 21:23:16 84° ENE 21:26:04 28° SSE
Cosmos 1464 Rocket 4.0 21:18:41 14° S 21:24:03 85° W 21:30:18 10° N
Helios 1B rocket 3.5 21:24:22 22° E 21:25:27 26° ENE 21:28:24 10° N
CZ-4B R/B 4.0 21:23:16 19° SSW 21:26:27 48° W 21:31:10 10° NNW
ISS -3.6 21:23:09 10° WNW 21:26:30 71° N 21:28:15 26° E
Cosmos 1461 4.3 21:23:10 10° WSW 21:26:34 34° NW 21:29:58 10° NNE
Okean 1 2.9 21:25:54 31° S 21:27:30 87° W 21:31:07 10° N
Cosmos 1726 Rocket 3.2 21:25:49 29° S 21:27:46 79° E 21:31:50 10° NNE
BREEZE-M DEB (TANK) 1.1 21:26:05 10° W 21:28:12 62° W 21:28:12 62° W
Okean O Rocket 4.0 21:31:24 10° SW 21:34:02 16° W 21:36:39 10° NW
Cosmos 1536 3.1 21:32:28 10° N 21:36:03 46° ENE 21:36:59 37° ESE
Cosmos-2242 3.0 21:37:47 38° SSE 21:39:07 58° E 21:43:10 10° NNE
Cosmos 1092 Rocket 4.0 21:35:47 10° N 21:41:58 75° E 21:45:20 29° SSE
Cosmos 2333 Rocket 3.7 21:38:07 10° NW 21:42:49 27° WSW 21:46:30 14° SSW
KORONAS-FOTON 4.1 21:43:53 39° ESE 21:44:03 39° E 21:47:14 10° NNE
Cosmos 2297 Rocket 3.9 21:46:14 16° ESE 21:46:52 16° E 21:50:12 10° ENE
Cosmos 841 Rocket 4.5 21:47:26 27° ESE 21:48:31 29° E 21:52:58 10° NE
Cosmos 1833 4.2 21:44:13 13° SSW 21:49:22 87° WNW 21:55:02 10° NNE
Cosmos 2360 Rocket 3.2 21:47:36 10° NW 21:52:48 37° WSW 21:55:44 22° SSW
CZ-2C R/B 4.0 21:52:45 18° WSW 21:53:18 19° W 21:55:23 10° NW
Cosmos 1766 2.7 21:53:10 10° NNW 21:56:24 74° W 21:56:45 64° SSW
Cosmos 1842 3.5 21:56:49 37° E 21:56:49 37° E 21:59:32 10° NNE
Cosmos 2322 3.9 21:51:46 10° NNW 21:57:28 67° ENE 22:00:18 30° SE
Cosmos 1975 3.6 21:55:14 10° N 21:58:36 32° ENE 21:59:14 30° E
Cosmos 2034 Rocket 4.3 21:58:35 19° SSW 22:03:17 67° WNW 22:09:37 10° N
Cosmos 372 Rocket 3.9 21:58:16 10° NNW 22:03:25 84° ENE 22:05:24 38° SSE
Cosmos 2221 3.3 22:03:18 32° ESE 22:03:52 33° E 22:07:39 10° NNE
Cosmos 2219 Rocket 2.8 22:00:13 10° NW 22:05:36 46° WSW 22:08:05 29° SSW
Cosmos 1271 Rocket 2.9 22:06:21 44° E 22:06:21 44° E 22:09:30 10° NNE
SL-08 ROCKET BODY 4.5 22:04:34 10° N 22:10:47 75° E 22:13:38 34° SSE
Cosmos 540 Rocket 3.9 22:07:44 16° SW 22:11:50 59° WNW 22:16:56 10° NNE
Helios 1A 2.9 22:13:02 10° N 22:16:57 72° WNW 22:18:07 43° SW
Cosmos 2279 Rocket 4.0 22:16:39 34° S 22:19:30 71° E 22:25:45 10° NNE
RESURS DK-1 2.2 22:16:02 10° NNW 22:20:01 86° NE 22:20:45 59° SE
Aureole 1 Rocket 4.2 22:15:42 10° NNW 22:21:27 60° WSW 22:24:34 32° S
Cosmos 1707 3.4 22:23:33 30° W 22:23:45 31° WNW 22:26:19 10° N
Cosmos 2322 Rocket 4.0 22:20:53 10° NW 22:24:56 20° W 22:27:37 15° SW
Cosmos 1634 Rocket 4.0 22:22:33 29° SSW 22:25:54 78° W 22:32:09 10° N
Cosmos 1937 Rocket 3.5 22:23:10 10° NNW 22:28:20 76° ENE 22:30:09 41° SE
TSX-5 3.9 22:27:07 10° NW 22:29:55 46° W 22:29:55 46° W
SL-16 R/B 4.3 22:28:07 10° N 22:32:29 22° NE 22:36:50 10° E
Geosat 4.1 22:27:38 10° NNE 22:32:39 73° WNW 22:35:38 24° SW
Cosmos 2058 Rocket 3.7 22:30:59 30° SW 22:32:45 47° WNW 22:36:58 10° N
CZ-2C R/B 3.6 22:28:44 10° NNE 22:33:12 70° ESE 22:34:15 50° SSE
Cosmos 468 Rocket 4.2 22:30:14 26° SW 22:33:13 69° WNW 22:38:29 10° NNE
GP-B 3.9 22:31:17 10° NNE 22:35:22 37° E 22:36:11 34° ESE
Meteor 2-9 Rocket 4.1 22:34:02 10° NNW 22:39:27 83° W 22:41:24 42° S
Cosmos 44 4.2 22:34:56 10° NW 22:39:52 37° WSW 22:41:01 33° SW
CZ-2C R/B 3.7 22:39:09 22° ESE 22:41:44 35° ENE 22:46:25 10° N
Lacrosse 4 Rocket 3.1 22:42:43 20° E 22:42:43 20° E 22:44:58 10° ENE
Cosmos 2237 Rocket 2.5 22:38:45 10° NNW 22:44:24 61° ENE 22:47:09 30° SE
SeaSat 1 4.3 22:43:15 10° E 22:47:15 26° NE 22:51:16 10° NNW
Cosmos 2266 Rocket 3.9 22:41:56 10° N 22:48:00 75° E 22:50:26 38° SSE
USA 234 3.7 22:41:54 10° ENE 22:48:02 41° SE 22:49:36 35° SSE
Cosmos 1980 3.8 22:43:00 10° NNW 22:48:40 69° ENE 22:51:12 34° SE
Cosmos 1470 3.1 22:46:17 10° NNW 22:49:19 42° W 22:49:19 42° W
Intercosmos 24 4.2 22:49:24 10° N 22:53:07 45° ENE 22:53:29 43° E
ARIANE 5 R/B 2.7 22:52:41 52° SSW 22:53:36 68° WSW 22:58:04 10° NNW
ALOS 2 2.5 22:54:46 56° S 22:55:38 78° WSW 23:00:03 10° NNW
Cosmos 2227 Rocket 3.5 22:55:50 23° ESE 22:56:50 24° ESE 23:01:15 10° NE
COSMOS 2428 3.0 22:52:22 10° NW 22:57:54 54° WSW 22:59:34 40° SSW
Helios 1B rocket 3.5 22:58:18 26° W 22:58:22 26° W 23:01:21 10° NW
Meteor 2-4 Rocket 4.3 23:00:13 34° SE 23:01:48 42° E 23:06:58 10° NNE
BlueWalker 3 4.1 23:05:22 14° E 23:05:22 14° E 23:05:59 10° E
ISS -1.7 23:00:03 10° W 23:01:11 19° W 23:01:11 19° W
Cosmos 1898 Rocket 4.1 22:58:24 10° NW 23:03:18 44° WSW 23:04:34 37° SW
Cosmos 2263 Rocket 3.9 23:03:56 17° ESE 23:05:00 18° E 23:08:35 10° ENE
CZ-2C R/B 3.6 23:01:52 10° NNE 23:07:33 55° E 23:09:26 39° SSE
Meteor 1-11 Rocket 3.7 23:02:40 10° NNW 23:08:20 75° W 23:10:10 43° S
Cosmos 1766 Rocket 3.8 23:05:01 10° N 23:09:16 56° ENE 23:10:08 47° ESE
SAR-Lupe-2 3.6 23:10:57 60° WNW 23:10:57 60° WNW 23:13:58 10° NNW
Meteor 1-10 Rocket 4.3 23:11:29 39° SSW 23:13:50 82° WNW 23:19:50 10° N
Cosmos 1238 Rocket 3.1 23:14:04 51° ESE 23:14:29 54° E 23:18:47 10° NNE
PSLV R/B 3.5 23:12:01 10° NNE 23:16:20 78° WNW 23:17:16 54° SSW
Cosmos 1655 Rocket 4.1 23:15:15 10° N 23:21:30 69° ENE 23:24:15 35° SSE
Alouette 2 Rocket 3.7 23:23:19 10° N 23:27:08 72° ENE 23:28:18 48° SE
Meteor 1-27 Rocket 3.7 23:25:49 42° S 23:27:54 87° E 23:33:41 10° NNE
NOSS 0 Rocket 4.4 23:23:19 10° NW 23:29:07 44° WSW 23:30:48 36° SSW
Meteor 2-10 Rocket 4.0 23:24:19 10° N 23:29:48 62° ENE 23:32:13 34° SE
Cosmos 841 Rocket 4.2 23:27:23 26° WSW 23:30:03 47° WNW 23:35:08 10° NNE
Cosmos 2297 Rocket 2.1 23:27:59 41° SSW 23:30:04 89° ESE 23:35:46 10° NNE
Cosmos 1975 4.4 23:30:36 10° NW 23:33:22 20° W 23:33:30 20° W
SL-14 R/B 4.3 23:39:49 31° ESE 23:40:09 32° E 23:43:34 10° NNE
Cosmos 2221 4.0 23:39:35 22° W 23:40:56 26° WNW 23:44:30 10° NNW
Cosmos 158 Rocket 4.1 23:39:40 45° S 23:41:10 66° ESE 23:46:27 10° NNE
CZ-4C R/B 4.1 23:38:46 10° NNE 23:41:47 33° E 23:41:47 33° E
MetOp-A 4.1 23:42:38 46° SW 23:43:39 55° W 23:48:15 10° NNW
ACS3 Solar Sail 2.5 23:38:03 10° NNE 23:43:41 41° E 23:46:10 28° SE
Landsat 5 3.5 23:43:59 10° NNE 23:48:01 59° E 23:48:28 55° SE
